Regional Weather Roundup
Issued by NWS Newport/Morehead, NC

Current Version | Previous Version | Graphics & Text | Print | Product List | Glossary Off
Versions: 1 2 3 4 5 6 7 8 9 10 11 12 13 14 15 16 17 18 19 20 21 22 23 24 25 26 27 28 29 30 31 32 33 34 35 36 37 38 39 40 41 42 43 44 45 46 47 48 49 50

614
ASUS42 KMHX 271614
RWRMHX
WEATHER ROUNDUP FOR EASTERN NORTH CAROLINA
NATIONAL WEATHER SERVICE NEWPORT/MOREHEAD CITY NC
1200 PM EDT THU JUL 27 2017

NOTE: "FAIR" INDICATES FEW OR NO CLOUDS BELOW 12,000 FEET
WITH NO SIGNIFICANT WEATHER AND/OR OBSTRUCTIONS TO VISIBILITY

NCZ015>017-031-032-045>047-102-103-271700-
NORTH COAST

CITY           SKY/WX    TMP DP  RH WIND       PRES   REMARKS
EDENTON        MOSUNNY   83  70  63 CALM      30.06F
ELIZABETH CITY CLOUDY    83  72  69 W10       30.05F
KITTY HAWK     PTSUNNY   83  67  58 CALM      30.04F
MANTEO         PTSUNNY   81  68  64 S5        30.06S

$$

NCZ045>047-081-094-103-104-271700-
CENTRAL COAST

CITY           SKY/WX    TMP DP  RH WIND       PRES   REMARKS
FRISCO         SUNNY     86  69  56 S6        30.07S

$$

NCZ095-097-098-100-101-271700-
SOUTHERN COAST

CITY           SKY/WX    TMP DP  RH WIND       PRES   REMARKS
BEAUFORT       SUNNY     84  73  69 SW9       30.06F
CEDAR ISLAND   NOT AVBL
JACKSONVILLE   MOSUNNY   87  73  62 SE9       30.05F
PINEY ISLAND   MOSUNNY  N/A N/A N/A MISG      30.06S
WILMINGTON     SUNNY     86  67  52 S6        30.06F


$$

NCZ011>013-027>030-043-044-078>080-089-090>093-098-271700-
COASTAL PLAIN

CITY           SKY/WX    TMP DP  RH WIND       PRES   REMARKS
AHOSKIE          N/A     81  71  71 SW3       30.04F
CLINTON        SUNNY     86  72  64 S5        30.06F
ELIZABETHTOWN  NOT AVBL
GOLDSBORO      MOSUNNY   88  69  53 SW8       30.03F
GREENVILLE     MOSUNNY   84  70  61 W7        30.07F
HAVELOCK       SUNNY     87  69  54 S7        30.07S
KENANSVILLE    SUNNY     86  70  58 W7        30.06F
KINSTON        MOSUNNY   90  66  45 SW9       30.06F
NEW BERN       SUNNY     87  68  52 VRB6      30.07F
RICHLANDS      NOT AVBL
ROCKY MOUNT    MOSUNNY   85  72  65 S9        30.04F
WASHINGTON     MOSUNNY   84  69  60 SW6       30.06F
WHITEVILLE     SUNNY     86  70  58 SE5       30.05F

$$

AMZ130-135-150-152-154-156-158-170-250-252-270-ANZ085-086-088-633-658-670-271700-
MARINE OBSERVATIONS

STATION/POSITION TIME  TEMP    WIND        PRES    WAVE   SWELL
                       AIR SEA DIR/SP/G            HT/PER HT/PER
                 (UTC) (F)     (DEG/KT/KT) (MB)    (FT/S) (FT/S)
CHESAPEAKE LIGHT NOT AVBL
64 E VA BEACH    1550   76 78  170/  4/  6 1018.1    3/ 6   2/ 6
DUCK             1548   80 71  210/  5/  6 1017.2
2 E DUCK         1600      74                N/A     3/ 8
OREGON INLET     1542   80 77  190/  5/  6 1017.8
13E OREGON INLT  1548      79                N/A     3/ 8   3/ 8
HATTERAS CG      1542   81 78  160/  4/  6 1018.1
DIAMOND BUOY     1550   81 85  250/  2/  4 1018.1    3/10   2/10
CAPE LOOKOUT     1600   81     150/  7/  8 1017.7
BEAUFORT LAB     1548   81 79  190/  8/  9 1017.5
30 SE NEW RVR IN 1508   82 84  170/  4/  8 1018.4
30 SE NEW RVR IN 1543      84                N/A     2/ 8
27 SE WRIGHTSVLE 1508   83 83  130/  6/ 10 1018.3
5 SE WRIGHTSVLE  1508   81 82  140/  6/ 10 1018.2
225 S CAPE HAT   1550   81 83  300/ 10/ 12 1017.5    3/ 7   3/ 7
41 SE CHARLESTON 1600   78 83  270/ 10/ 12 1017.0

$$




USA.gov is the U.S. government's official web portal to all federal, state and local government web resources and services.